Waarnemingen

Advertentie
Mijn weer
Haparanda A, Zweden (2197): temperatuur & dauwpunt: 15.10.2017 19:00:00 - 21.10.2017 19:00:00 (CEST)Haparanda A, Zweden (2197): windsnelheid & windstoten: 15.10.2017 19:00:00 - 21.10.2017 19:00:00 (CEST)Haparanda A, Zweden (2197): windrichting: 15.10.2017 19:00:00 - 21.10.2017 19:00:00 (CEST)Haparanda A, Zweden (2197): luchtdruk: 15.10.2017 19:00:00 - 21.10.2017 19:00:00 (CEST)Haparanda A, Zweden (2197): zicht: 15.10.2017 19:00:00 - 21.10.2017 19:00:00 (CEST)Haparanda A, Zweden (2197): neerslag: 15.10.2017 19:00:00 - 21.10.2017 19:00:00 (CEST)
Datum & Tijd tt [°C] td [°C] ff [km/u] ff [kn] fx [km/u] fx [kn] dd ppp [hPa] vv [km] rr [mm]
21.10.2017 19:00:00 -3,8 -4,1 4 2 9 5 WNW 1021,1 50 0,0
21.10.2017 18:00:00 -3,4 -3,7 5 3 8 4 WNW 1021,3 50 0,0
21.10.2017 17:00:00 -2,4 -2,8 3 2 7 4 W 1021,4 50 0,0
21.10.2017 16:00:00 -1,1 -2,2 4 2 9 5 W 1021,7 50 0,0
21.10.2017 15:00:00 0,2 -1,6 5 3 13 7 W 1021,8 50 0,0
21.10.2017 14:00:00 -0,4 -1,5 5 3 13 7 W 1022,1 50 0,0
21.10.2017 13:00:00 -0,7 -1,8 5 3 14 7 WNW 1022,6 50 0,0
21.10.2017 12:00:00 -1,1 -2,1 5 3 14 8 W 1023,1 50 0,0
21.10.2017 11:00:00 -1,9 -2,6 6 3 17 9 W 1023,3 50 0,0
21.10.2017 10:00:00 -3,2 -3,6 5 3 14 8 W 1023,5 50 0,0
21.10.2017 09:00:00 -4,2 -4,5 5 3 11 6 WZW 1023,6 50 0,0
21.10.2017 08:00:00 -4,5 -4,8 5 3 15 8 ZW 1023,8 2,7 0,0
21.10.2017 07:00:00 -5,5 -6,0 4 2 12 6 W 1024,0 50 0,0
21.10.2017 06:00:00 -4,9 -5,4 5 3 11 6 WZW 1024,3 50 0,0
21.10.2017 05:00:00 -4,9 -5,4 5 3 11 6 W 1024,6 50 0,0
21.10.2017 04:00:00 -5,3 -5,8 3 2 9 5 W 1025,1 50 0,0
21.10.2017 03:00:00 -5,0 -5,4 5 3 11 6 WZW 1025,5 50 0,0
21.10.2017 02:00:00 -5,9 -6,4 5 3 9 5 WZW 1025,8 50 0,0
21.10.2017 01:00:00 -5,8 -6,5 1 0 3 2 OZO 1026,2 34 0,0
21.10.2017 00:00:00 -4,7 -5,1 1 0 7 4 N 1026,6 3,6 0,0
20.10.2017 23:00:00 -3,7 -4,0 2 1 7 4 NNW 1026,5 0,7 0,0
20.10.2017 22:00:00 -2,6 -2,7 4 2 10 5 NW 1026,4 0,4 0,0
20.10.2017 21:00:00 -2,3 -2,3 7 4 13 7 N 1026,7 1,3 0,0
20.10.2017 20:00:00 -1,6 -1,6 4 2 11 6 N 1026,5 0,8 0,0
20.10.2017 19:00:00 -1,6 -1,7 6 3 11 6 N 1026,4 50 0,0
20.10.2017 18:00:00 -0,9 -1,2 8 4 13 7 N 1026,2 50 0,0
20.10.2017 17:00:00 -0,4 -0,8 7 4 13 7 NNW 1026,0 50 0,0
20.10.2017 16:00:00 0,8 -0,5 9 5 18 10 N 1025,8 50 0,0
20.10.2017 15:00:00 1,9 0,1 9 5 18 10 N 1025,7 50 0,0
20.10.2017 14:00:00 2,1 0,1 10 5 18 10 N 1025,6 50 0,0
20.10.2017 13:00:00 2,1 0,6 9 5 17 9 NNO 1025,3 50 0,0
20.10.2017 12:00:00 0,7 0,1 10 5 22 12 NNO 1025,1 50 0,0
20.10.2017 11:00:00 0,8 0,7 10 5 19 11 NNO 1024,6 41 0,0
20.10.2017 10:00:00 0,6 0,6 10 6 21 11 NNO 1023,9 9 0,0
20.10.2017 09:00:00 0,3 0,3 11 6 19 10 NNO 1023,0 5 0,6
20.10.2017 08:00:00 0,4 0,4 11 6 26 14 NO 1022,2 2,8 0,1
20.10.2017 07:00:00 0,3 0,3 13 7 24 13 NNO 1021,2 4,3 0,4
20.10.2017 06:00:00 0,8 0,8 11 6 20 11 NO 1020,6 4,0 2,9
20.10.2017 05:00:00 1,8 1,8 8 4 15 8 ONO 1020,1 2,3 2,1
20.10.2017 04:00:00 2,5 2,5 4 2 10 5 O 1020,0 4,1 0,6
20.10.2017 03:00:00 2,7 2,6 4 2 12 6 Z 1019,7 3,4 0,6
20.10.2017 02:00:00 2,1 2,1 5 3 9 5 ZO 1019,5 12 0,0
20.10.2017 01:00:00 2,2 2,2 2 1 7 4 ONO 1019,6 9 0,0
20.10.2017 00:00:00 1,6 1,6 4 2 6 4 O 1019,6 10 0,1
19.10.2017 23:00:00 1,1 1,1 4 2 6 3 OZO 1019,6 9 0,0
19.10.2017 22:00:00 0,7 0,7 3 2 7 4 ZO 1019,5 12 0,0
19.10.2017 21:00:00 0,3 0,3 5 3 7 4 O 1019,3 13 0,0
19.10.2017 20:00:00 0,0 -0,1 1 1 5 3 WNW 1019,2 20 0,0
19.10.2017 19:00:00 0,2 0,1 2 1 6 3 W 1018,9 17 0,0
19.10.2017 18:00:00 0,4 0,0 3 2 4 2 W 1018,7 23 0,0
19.10.2017 17:00:00 2,2 1,2 2 1 8 4 NW 1018,6 50 0,0
19.10.2017 16:00:00 2,5 1,0 1 0 5 3 OZO 1018,4 50 0,0
19.10.2017 15:00:00 2,5 1,0 4 2 11 6 N 1018,1 50 0,0
19.10.2017 14:00:00 2,9 1,3 7 4 14 7 NNW 1017,8 50 0,0
19.10.2017 13:00:00 2,8 1,3 6 3 15 8 NW 1017,3 50 0,0
19.10.2017 12:00:00 2,4 1,4 6 4 14 8 N 1016,7 50 0,0
19.10.2017 11:00:00 2,1 1,5 8 4 19 10 NNO 1016,3 50 0,0
19.10.2017 10:00:00 1,6 1,5 9 5 19 10 NNO 1015,5 35 0,0
19.10.2017 09:00:00 1,1 1,1 7 4 12 6 N 1014,6 37 0,0
19.10.2017 08:00:00 0,4 0,3 6 3 14 7 NNW 1013,8 42 0,0
19.10.2017 07:00:00 1,1 1,0 8 4 14 8 N 1012,9 50 0,0
19.10.2017 06:00:00 0,7 0,6 9 5 16 9 N 1012,2 50 0,0
19.10.2017 05:00:00 0,5 0,4 9 5 15 8 NNW 1011,6 27 0,0
19.10.2017 04:00:00 0,1 0,0 8 4 14 8 NNW 1010,9 50 0,0
19.10.2017 03:00:00 -0,4 -0,8 6 3 20 11 NNW 1010,2 50 0,0
19.10.2017 02:00:00 0,2 -0,2 7 4 15 8 NNW 1009,6 50 0,0
19.10.2017 01:00:00 0,3 -0,3 6 4 11 6 NNW 1009,0 50 0,0
19.10.2017 00:00:00 -0,4 -0,8 6 3 13 7 NNW 1008,3 50 0,0
18.10.2017 23:00:00 0,2 -0,5 6 3 19 11 NW 1007,6 50 0,0
18.10.2017 22:00:00 1,1 -0,2 12 6 28 15 NNW 1007,1 50 0,0
18.10.2017 21:00:00 1,0 -0,2 12 6 27 15 NNW 1006,6 50 0,0
18.10.2017 20:00:00 0,8 -0,4 14 8 25 14 NNW 1006,1 50 0,0
18.10.2017 19:00:00 1,3 0,0 14 8 30 16 NNW 1005,4 50 0,0
18.10.2017 18:00:00 1,6 0,4 8 4 21 12 NNW 1004,8 50 0,0
18.10.2017 17:00:00 1,5 0,2 10 5 26 14 NNW 1004,2 50 0,0
18.10.2017 16:00:00 1,8 0,2 10 5 25 14 NNW 1003,6 50 0,0
18.10.2017 15:00:00 2,4 0,8 11 6 24 13 N 1002,8 50 0,0
18.10.2017 14:00:00 2,1 0,9 13 7 24 13 N 1002,1 50 0,0
18.10.2017 13:00:00 1,9 0,9 12 7 22 12 N 1001,3 50 0,0
18.10.2017 12:00:00 1,7 1,3 13 7 24 13 N 1000,6 50 0,0
18.10.2017 11:00:00 1,0 1,0 9 5 16 9 N 1000,1 50 0,0
18.10.2017 10:00:00 0,2 0,2 6 4 13 7 NNW 999,6 6 0,4
18.10.2017 09:00:00 -0,2 -0,2 7 4 15 8 N 999,0 43 0,0
18.10.2017 08:00:00 -1,0 -1,0 9 5 16 8 N 998,7 4,2 0,0
18.10.2017 07:00:00 -1,1 -1,1 6 4 16 8 NNO 998,2 1,3 0,0
18.10.2017 06:00:00 -1,5 -1,5 8 4 16 9 NNO 997,8 1,5 0,0
18.10.2017 05:00:00 -1,9 -2,0 8 5 16 9 NNO 997,6 4,7 0,0
18.10.2017 04:00:00 -2,3 -2,4 5 3 9 5 N 997,4 25 0,0
18.10.2017 03:00:00 -2,0 -2,1 5 3 13 7 N 997,4 25 0,0
18.10.2017 02:00:00 -1,8 -1,9 6 3 9 5 N 997,5 35 0,0
18.10.2017 01:00:00 -2,0 -2,1 5 3 10 5 NNO 997,5 35 0,0
18.10.2017 00:00:00 -2,1 -2,2 4 2 8 5 N 997,6 28 0,0
17.10.2017 23:00:00 -1,9 -2,0 5 3 7 4 N 997,8 8 0,0
17.10.2017 22:00:00 -1,6 -1,6 2 1 6 3 OZO 998,0 11 0,0
17.10.2017 21:00:00 -1,5 -1,6 3 2 10 5 O 998,0 11 0,0
17.10.2017 20:00:00 -0,7 -0,8 1 1 6 3 NO 998,1 6 0,0
17.10.2017 19:00:00 0,7 0,4 3 2 9 5 N 998,5 50 0,0
17.10.2017 18:00:00 1,4 1,1 4 2 8 4 W 999,0 50 0,0
17.10.2017 17:00:00 2,4 1,4 4 2 9 5 ZZW 999,6 50 0,0
17.10.2017 16:00:00 5,1 2,6 5 3 15 8 Z 1000,1 50 0,0
17.10.2017 15:00:00 8,5 2,9 6 3 15 8 ZZW 1000,2 50 0,0
17.10.2017 14:00:00 9,2 2,1 4 2 13 7 WNW 1000,6 50 0,0
17.10.2017 13:00:00 9,0 1,9 5 3 13 7 WNW 1000,7 50 0,0
17.10.2017 12:00:00 8,5 2,1 6 3 21 11 WNW 1001,0 50 0,0
17.10.2017 11:00:00 7,5 2,0 8 5 25 13 WNW 1000,9 50 0,0
17.10.2017 10:00:00 6,0 1,7 7 4 23 12 W 1000,9 50 0,0
17.10.2017 09:00:00 4,3 1,5 10 5 25 14 W 1000,6 50 0,0
17.10.2017 08:00:00 3,2 0,9 7 4 21 11 W 1000,5 50 0,0
17.10.2017 07:00:00 3,1 1,0 6 3 19 10 WZW 1000,2 50 0,0
17.10.2017 06:00:00 3,7 1,1 9 5 24 13 W 999,9 50 0,0
17.10.2017 05:00:00 4,1 1,3 11 6 24 13 W 999,0 50 0,0
17.10.2017 04:00:00 4,6 1,3 8 4 29 16 W 998,7 50 0,0
17.10.2017 03:00:00 5,6 1,5 14 8 29 16 WNW 997,8 50 0,0
17.10.2017 02:00:00 5,7 1,2 12 6 29 16 WNW 997,0 50 0,0
17.10.2017 01:00:00 5,9 1,0 12 6 41 22 WNW 996,1 50 0,0
17.10.2017 00:00:00 6,1 1,0 13 7 33 18 W 995,4 50 0,0
16.10.2017 23:00:00 6,7 1,0 13 7 34 19 W 994,6 50 0,0
16.10.2017 22:00:00 7,2 1,1 16 8 38 20 W 994,1 50 0,0
16.10.2017 21:00:00 7,4 0,8 16 9 45 25 W 993,4 50 0,0
16.10.2017 20:00:00 7,7 0,9 18 10 49 27 W 993,1 50 -
16.10.2017 19:00:00 8,2 1,1 16 9 43 23 W 992,6 50 -
16.10.2017 18:00:00 8,5 1,6 15 8 44 24 W 992,1 50 -
16.10.2017 17:00:00 9,4 3,6 10 5 44 24 W 991,3 50 -
16.10.2017 16:00:00 9,4 3,6 20 11 55 30 WNW 990,6 50 -
16.10.2017 15:00:00 9,8 4,8 16 9 - - W 989,3 50 -
16.10.2017 14:00:00 10,0 6,2 17 9 40 21 WZW 988,6 50 0,0
16.10.2017 13:00:00 9,4 8,6 18 10 42 23 ZW 988,7 50 0,4
16.10.2017 12:00:00 7,2 7,2 21 11 42 23 Z 989,8 4,6 2,4
16.10.2017 11:00:00 6,7 6,7 17 9 50 27 ZZO 991,7 4,5 3,3
16.10.2017 10:00:00 6,6 6,5 21 11 45 24 ZZO 993,6 3,6 0,7
16.10.2017 09:00:00 6,3 6,2 14 7 42 23 ZO 995,9 6 1,2
16.10.2017 08:00:00 6,2 6,1 14 8 37 20 ZZO 998,0 7 0,8
16.10.2017 07:00:00 6,3 6,2 13 7 32 17 ZZO 1000,1 9 1,2
16.10.2017 06:00:00 6,4 6,0 14 7 32 17 ZZO 1001,6 23 0,1
16.10.2017 05:00:00 6,4 5,8 12 7 29 16 ZZO 1002,9 50 0,0
16.10.2017 04:00:00 6,6 6,0 12 7 28 15 ZZO 1004,1 48 0,0
16.10.2017 03:00:00 6,5 5,8 9 5 30 16 ZO 1005,1 50 0,0
16.10.2017 02:00:00 6,5 5,8 11 6 31 17 ZZO 1006,5 50 0,0
16.10.2017 01:00:00 6,2 5,6 11 6 26 14 ZZO 1007,5 50 0,0
16.10.2017 00:00:00 6,0 5,9 6 3 18 10 ZO 1008,3 17 0,0
15.10.2017 23:00:00 6,0 5,7 8 5 25 13 ZO 1008,9 14 0,1
15.10.2017 22:00:00 5,9 5,2 10 6 21 11 ZZO 1009,5 50 0,0
15.10.2017 21:00:00 5,5 4,9 6 4 14 7 ZO 1009,7 24 0,0
15.10.2017 20:00:00 5,1 4,2 7 4 19 10 Z 1010,3 29 0,0
15.10.2017 19:00:00 5,2 4,0 8 4 19 10 ZZO 1010,4 50 0,0

tt = temperatuur
td = dauwpunt
ff = windsnelheid
fx = windstoten
dd = windrichting
ppp = luchtdruk
vv = zicht
rr = neerslag

Weerstations in de omgeving